Welcome to our new website - Welkom op onze vernieuwde website - Bienvenue sur notre nouveau site web - Willkommen auf unserer neuen Website
Check our progress frequently. Prüfen Sie unsere Fortschritte regelmäßig. Consultez notre progression fréquemment. Komt u straks nog eens terug

Bezoek ook deze websites:

Template documentation
and downloads

And another site



Het weer levert geen direct gevaar op.    Er zijn geen waarschuwingen afgegeven.

Select another period ( hide this area )

Eenheden Periode Custom range Directly to
Metrisch Engels Beide
Dagelijkse Wekelijkse Maandelijkse Jaarlijkse
use both date-selectors for a custom range
previous Dag
With this date

WeatherUnderground graphs for this period ( click here )


Dagelijkse Samenvatting Zondag 07 maart 2021
Tijd Temp. ( °C ) Dew pt. ( °C ) Wind ( km/h ) van Windvlaag ( km/h ) Luchtdruk ( hPa ) Humid.( % ) Rainrate ( cm )
Hoog5,8 0,7 5,0 NW ( 7/18 ) 5,0 1030,1 93 -
Gemiddeld1,1 -1,6 0,1 Kalm #211/218 0,2 1026,5 83 -
Laag-3,6 -4,9 -   0,0 1022,7 64 -
Dagelijkse Tabular details for Zondag 07 maart 2021
Tijd Temp. ( °C ) Dew pt. ( °C ) Wind ( km/h ) van Windvlaag ( km/h ) Luchtdruk ( hPa ) Humid.( % ) Rainrate ( cm )
00:04 -1,2 -2,6   Kalm   1030,1 90 -
00:09 -1,2 -2,6   Kalm   1030,1 90 -
00:14 -1,2 -2,6   Kalm   1030,1 90 -
00:19 -1,3 -2,7   Kalm   1029,8 90 -
00:24 -1,3 -2,7   Kalm   1029,8 90 -
00:29 -1,3 -2,7   Kalm   1029,8 90 -
00:34 -1,4 -2,8   Kalm   1029,8 90 -
00:39 -1,4 -2,8   Kalm   1029,8 90 -
00:44 -1,5 -2,9   Kalm   1029,8 90 -
00:49 -1,6 -3,0   Kalm   1029,8 90 -
00:54 -1,6 -3,0   Kalm   1029,8 90 -
00:59 -1,6 -3,0   Kalm   1029,8 90 -
01:04 -1,6 -3,0   Kalm   1029,8 90 -
01:09 -1,6 -3,0   Kalm   1029,8 90 -
01:14 -1,6 -3,0   Kalm   1029,8 90 -
01:19 -1,6 -3,0   Kalm   1029,8 90 -
01:24 -1,5 -2,8   Kalm   1029,5 91 -
01:29 -1,4 -2,7   Kalm   1029,5 91 -
01:34 -1,3 -2,6   Kalm   1029,5 91 -
01:39 -1,1 -2,4   Kalm   1029,5 91 -
01:44 -1,1 -2,4   Kalm   1029,5 91 -
01:49 -0,9 -2,2   Kalm   1029,5 91 -
01:54 -0,9 -2,2   Kalm   1029,5 91 -
01:59 -0,8 -2,1   Kalm   1029,5 91 -
02:04 -0,8 -2,1   Kalm   1029,5 91 -
02:09 -0,8 -2,1   Kalm   1029,5 91 -
02:14 -0,8 -2,1   Kalm   1029,5 91 -
02:19 -0,8 -2,1   Kalm   1029,5 91 -
02:24 -0,8 -2,1   Kalm   1029,1 91 -
02:29 -0,9 -2,2   Kalm   1029,1 91 -
02:34 -1,0 -2,4   Kalm   1029,1 90 -
02:39 -1,1 -2,5   Kalm   1029,1 90 -
02:44 -1,2 -2,6   Kalm   1028,8 90 -
02:49 -1,3 -2,7   Kalm   1028,8 90 -
02:54 -1,3 -2,7   Kalm   1028,5 90 -
02:59 -1,4 -2,8   Kalm   1028,5 90 -
03:04 -1,6 -3,0   Kalm   1028,5 90 -
03:09 -1,6 -3,0   Kalm   1028,5 90 -
03:14 -1,7 -3,1   Kalm   1028,5 90 -
03:19 -1,8 -3,1   Kalm   1028,5 91 -
03:24 -1,8 -3,2   Kalm   1028,5 90 -
03:29 -1,9 -3,3   Kalm   1028,5 90 -
03:34 -1,9 -3,3   Kalm   1028,5 90 -
03:39 -2,0 -3,4   Kalm   1028,5 91 -
03:44 -2,1 -3,4   Kalm   1028,1 91 -
03:49 -2,2 -3,5   Kalm   1028,1 91 -
03:54 -2,2 -3,5   Kalm   1028,1 91 -
03:59 -2,2 -3,5   Kalm   1028,1 91 -
04:04 -2,3 -3,6   Kalm   1028,1 91 -
04:09 -2,3 -3,6   Kalm   1027,8 91 -
04:14 -2,3 -3,6   Kalm   1027,8 91 -
04:19 -2,4 -3,7   Kalm   1027,8 91 -
04:24 -2,4 -3,7   Kalm   1027,8 91 -
04:29 -2,5 -3,8   Kalm   1027,8 91 -
04:34 -2,6 -3,9   Kalm   1027,8 91 -
04:39 -2,6 -3,9   Kalm   1027,8 91 -
04:44 -2,7 -4,0   Kalm   1027,8 91 -
04:49 -2,7 -4,0   Kalm   1027,8 91 -
04:54 -2,8 -4,1   Kalm   1027,8 91 -
04:59 -2,8 -4,1   Kalm   1027,8 91 -
05:04 -2,9 -4,2   Kalm   1027,8 91 -
05:09 -2,9 -4,2   Kalm   1027,8 91 -
05:14 -3,0 -4,3   Kalm   1027,4 91 -
05:19 -3,1 -4,4   Kalm   1027,4 91 -
05:24 -3,1 -4,4   Kalm   1027,4 91 -
05:29 -3,1 -4,4   Kalm   1027,4 91 -
05:34 -3,2 -4,5   Kalm   1027,4 91 -
05:39 -3,2 -4,5   Kalm   1027,4 91 -
05:44 -3,2 -4,5   Kalm   1027,4 91 -
05:49 -3,3 -4,6   Kalm   1027,4 91 -
05:54 -3,3 -4,6   Kalm   1027,4 91 -
05:59 -3,3 -4,6   Kalm   1027,4 91 -
06:04 -3,4 -4,7   Kalm   1027,4 91 -
06:09 -3,4 -4,7   Kalm   1027,4 91 -
06:14 -3,4 -4,7   Kalm   1027,4 91 -
06:19 -3,4 -4,7   Kalm   1027,4 91 -
06:24 -3,4 -4,7   Kalm   1027,4 91 -
06:29 -3,5 -4,8   Kalm   1027,4 91 -
06:34 -3,5 -4,8   Kalm   1027,4 91 -
06:39 -3,6 -4,9   Kalm   1027,4 91 -
06:44 -3,6 -4,9   Kalm   1027,4 91 -
06:49 -3,5 -4,8   Kalm   1027,4 91 -
06:54 -3,4 -4,7   Kalm   1027,1 91 -
06:59 -3,4 -4,7   Kalm   1027,4 91 -
07:04 -3,3 -4,6   Kalm   1027,1 91 -
07:09 -3,2 -4,5   Kalm   1027,1 91 -
07:14 -3,1 -4,2   Kalm   1027,1 92 -
07:19 -2,9 -4,0   Kalm   1027,1 92 -
07:24 -2,8 -3,9   Kalm   1027,1 92 -
07:29 -2,7 -3,8   Kalm   1027,1 92 -
07:34 -2,5 -3,6   Kalm   1026,8 92 -
07:39 -2,3 -3,4   Kalm   1026,8 92 -
07:44 -2,1 -3,2   Kalm   1026,8 92 -
07:49 -1,9 -3,0   Kalm   1026,8 92 -
07:54 -1,7 -2,8   Kalm   1026,8 92 -
07:59 -1,5 -2,6   Kalm   1026,8 92 -
08:04 -1,3 -2,4   Kalm   1026,8 92 -
08:09 -1,0 -2,1   Kalm   1026,8 92 -
08:14 -0,8 -1,8   Kalm   1026,8 93 -
08:19 -0,6 -1,7   Kalm   1026,8 93 -
08:24 -0,4 -1,5   Kalm   1026,8 92 -
08:29 -0,3 -1,4   Kalm   1026,8 92 -
08:34 -0,2 -1,3   Kalm   1026,8 92 -
08:39 -0,1 -1,2   Kalm   1026,8 92 -
08:44 0,0 -1,1   Kalm   1026,8 92 -
08:49 0,1 -1,0   Kalm   1026,8 92 -
08:54 0,2 -0,9   Kalm   1026,8 92 -
08:59 0,3 -0,8   Kalm   1026,8 92 -
09:04 0,3 -0,8   Kalm   1026,8 92 -
09:09 0,4 -0,7   Kalm   1026,8 92 -
09:14 0,4 -0,7   Kalm   1026,8 92 -
09:19 0,4 -0,7   Kalm   1026,8 92 -
09:24 0,6 -0,5   Kalm   1026,8 92 -
09:29 0,7 -0,5   Kalm   1026,8 92 -
09:34 0,7 -0,5   Kalm   1026,8 92 -
09:39 0,8 -0,4   Kalm   1026,8 92 -
09:44 0,9 -0,4   Kalm   1026,8 92 -
09:49 1,0 -0,3   Kalm   1026,8 91 -
09:54 1,1 -0,2   Kalm   1026,8 91 -
09:59 1,2 -0,1   Kalm   1026,4 91 -
10:04 1,3 0,0   Kalm   1026,4 91 -
10:09 1,3 0,0   Kalm   1026,4 91 -
10:14 1,4 -0,1   Kalm   1026,4 90 -
10:19 1,4 -0,1   Kalm   1026,4 90 -
10:24 1,6 0,0   Kalm   1026,4 89 -
10:29 1,7 0,1   Kalm   1026,1 89 -
10:34 1,8 0,2   Kalm   1026,1 89 -
10:39 1,9 0,1   Kalm   1026,1 88 -
10:44 2,1 0,2   Kalm   1026,1 87 -
10:49 2,2 0,3   Kalm   1026,1 87 -
10:54 2,3 0,3   Kalm   1026,1 87 -
10:59 2,4 0,3   Kalm   1026,1 86 -
11:04 2,6 0,3   Kalm   1026,1 85 -
11:09 2,7 0,4   Kalm   1026,1 85 -
11:14 2,8 0,4   Kalm   1026,1 85 -
11:19 2,9 0,5   Kalm   1026,1 84 -
11:24 3,0 0,6   Kalm   1026,1 84 -
11:29 3,1 0,6   Kalm   1026,1 84 -
11:34 3,2 0,6   Kalm   1026,1 83 -
11:39 3,3 0,6   Kalm   1026,1 83 -
11:44 3,4 0,6   Kalm   1025,7 82 -
11:49 3,5 0,6   Kalm   1025,7 82 -
11:54 3,6 0,6   Kalm   1025,7 81 -
11:59 3,7 0,5   Kalm   1025,7 80 -
12:04 3,8 0,6   Kalm   1025,7 80 -
12:09 3,8 0,7   Kalm   1025,7 80 -
12:14 3,9 0,6   Kalm   1025,7 79 -
12:19 4,1 0,6   Kalm   1025,7 78 -
12:24 4,1 0,6   Kalm   1025,7 78 -
12:29 4,2 0,5   Kalm   1025,7 77 -
12:34 4,2 0,5   Kalm   1025,7 77 -
12:39 4,3 0,4   Kalm   1025,7 76 -
12:44 4,3 0,4   Kalm   1025,7 76 -
12:49 4,3 0,4   Kalm   1025,7 76 -
12:54 4,3 0,1   Kalm   1025,7 74 -
12:59 4,4 0,2   Kalm   1025,4 74 -
13:04 4,4 0,2   Kalm   1025,4 74 -
13:09 4,4 0,2   Kalm   1025,4 74 -
13:14 4,6 0,1   Kalm   1025,4 73 -
13:19 4,6 0,2   Kalm   1025,4 73 -
13:24 4,8 0,4   Kalm   1025,1 73 -
13:29 4,9 0,4   Kalm   1025,1 73 -
13:34 4,9 0,1   Kalm   1025,1 71 -
13:39 5,0 0,0   Kalm   1025,1 70 -
13:44 4,9 -0,3   Kalm   1025,1 69 -
13:49 4,9 -0,3   Kalm   1025,1 69 -
13:54 4,9 -0,3   Kalm   1024,7 69 -
13:59 4,9 -0,3   Kalm   1024,7 69 -
14:04 5,1 -0,1   Kalm   1024,7 69 -
14:09 5,1 -0,1   Kalm   1024,7 69 -
14:14 5,1 -0,3   Kalm   1024,7 68 -
14:19 5,2 -0,4   Kalm   1024,4 67 -
14:24 5,3 -0,3   Kalm   1024,4 67 -
14:29 5,3 -0,3   Kalm   1024,4 67 -
14:34 5,3 -0,3   Kalm   1024,0 67 -
14:39 5,4 -0,2   Kalm   1024,0 67 -
14:44 5,4 -0,4   Kalm   1024,0 66 -
14:49 5,4 -0,4   Kalm   1024,0 66 -
14:54 5,6 -0,3   Kalm   1024,0 66 -
14:59 5,6 -0,5   Kalm   1024,0 65 -
15:04 5,7 -0,4   Kalm 2,0 1024,0 65 -
15:09 5,8 -0,4   Kalm   1024,0 65 -
15:14 5,8 -0,5 2,0 Westen 2,0 1024,0 64 -
15:19 5,8 -0,6   Kalm   1024,0 64 -
15:24 5,8 -0,5   Kalm   1023,7 64 -
15:29 5,8 -0,5   Kalm 3,0 1023,7 64 -
15:34 5,8 -0,5   Kalm   1023,7 64 -
15:39 5,8 -0,5 1,0 WNW 3,0 1023,7 64 -
15:44 5,8 -0,5   Kalm   1023,7 64 -
15:49 5,8 -0,3   Kalm   1023,7 65 -
15:54 5,8 -0,3 2,0 NW 2,0 1023,7 65 -
15:59 5,8 -0,4   Kalm 2,0 1023,4 65 -
16:04 5,7 -0,4   Kalm 3,0 1023,4 65 -
16:09 5,7 -0,4   Kalm   1023,4 65 -
16:14 5,7 -0,4   Kalm   1023,4 65 -
16:19 5,6 -0,5 2,0 NW 5,0 1023,4 65 -
16:24 5,5 -0,3   Kalm 5,0 1023,4 66 -
16:29 5,4 -0,4   Kalm   1023,4 66 -
16:34 5,4 -0,4   Kalm   1023,4 66 -
16:39 5,3 -0,3   Kalm   1023,4 67 -
16:44 5,3 -0,3 3,0 Westen 3,0 1023,4 67 -
16:49 5,3 -0,4   Kalm 3,0 1023,4 67 -
16:54 5,2 -0,4 5,0 WNW 5,0 1023,0 67 -
16:59 5,2 -0,2   Kalm   1023,0 68 -
17:04 5,2 -0,2   Kalm   1023,0 68 -
17:09 5,2 -0,2   Kalm   1023,0 68 -
17:14 5,1 -0,3   Kalm 2,0 1023,0 68 -
17:19 5,1 -0,3   Kalm 2,0 1023,0 68 -
17:24 5,1 -0,1   Kalm   1023,0 69 -
17:29 5,1 -0,1   Kalm   1023,0 69 -
17:34 5,0 -0,2   Kalm   1023,0 69 -
17:39 4,9 -0,1   Kalm   1023,0 70 -
17:44 4,9 -0,1   Kalm   1023,0 70 -
17:49 4,9 -0,1   Kalm 2,0 1023,0 70 -
17:54 4,8 -0,2   Kalm   1023,0 70 -
17:59 4,8 0,0   Kalm   1023,0 71 -
18:04 4,8 0,0 3,0 NW 3,0 1023,0 71 -
18:09 4,7 -0,1   Kalm 3,0 1022,7 71 -
Dagelijkse Samenvatting Zondag 07 maart 2021
Tijd Temp. ( °C ) Dew pt. ( °C ) Wind ( km/h ) van Windvlaag ( km/h ) Luchtdruk ( hPa ) Humid.( % ) Rainrate ( cm )
Hoog5,8 0,7 5,0 NW ( 7/18 ) 5,0 1030,1 93 -
Gemiddeld1,1 -1,6 0,1 Kalm #211/218 0,2 1026,5 83 -
Laag-3,6 -4,9 -   0,0 1022,7 64 -
Dagelijkse Tabular details for Zondag 07 maart 2021
Tijd Temp. ( °C ) Dew pt. ( °C ) Wind ( km/h ) van Windvlaag ( km/h ) Luchtdruk ( hPa ) Humid.( % ) Rainrate ( cm )
00:04 -1,2 -2,6   Kalm   1030,1 90 -
00:09 -1,2 -2,6   Kalm   1030,1 90 -
00:14 -1,2 -2,6   Kalm   1030,1 90 -
00:19 -1,3 -2,7   Kalm   1029,8 90 -
00:24 -1,3 -2,7   Kalm   1029,8 90 -
00:29 -1,3 -2,7   Kalm   1029,8 90 -
00:34 -1,4 -2,8   Kalm   1029,8 90 -
00:39 -1,4 -2,8   Kalm   1029,8 90 -
00:44 -1,5 -2,9   Kalm   1029,8 90 -
00:49 -1,6 -3,0   Kalm   1029,8 90 -
00:54 -1,6 -3,0   Kalm   1029,8 90 -
00:59 -1,6 -3,0   Kalm   1029,8 90 -
01:04 -1,6 -3,0   Kalm   1029,8 90 -
01:09 -1,6 -3,0   Kalm   1029,8 90 -
01:14 -1,6 -3,0   Kalm   1029,8 90 -
01:19 -1,6 -3,0   Kalm   1029,8 90 -
01:24 -1,5 -2,8   Kalm   1029,5 91 -
01:29 -1,4 -2,7   Kalm   1029,5 91 -
01:34 -1,3 -2,6   Kalm   1029,5 91 -
01:39 -1,1 -2,4   Kalm   1029,5 91 -
01:44 -1,1 -2,4   Kalm   1029,5 91 -
01:49 -0,9 -2,2   Kalm   1029,5 91 -
01:54 -0,9 -2,2   Kalm   1029,5 91 -
01:59 -0,8 -2,1   Kalm   1029,5 91 -
02:04 -0,8 -2,1   Kalm   1029,5 91 -
02:09 -0,8 -2,1   Kalm   1029,5 91 -
02:14 -0,8 -2,1   Kalm   1029,5 91 -
02:19 -0,8 -2,1   Kalm   1029,5 91 -
02:24 -0,8 -2,1   Kalm   1029,1 91 -
02:29 -0,9 -2,2   Kalm   1029,1 91 -
02:34 -1,0 -2,4   Kalm   1029,1 90 -
02:39 -1,1 -2,5   Kalm   1029,1 90 -
02:44 -1,2 -2,6   Kalm   1028,8 90 -
02:49 -1,3 -2,7   Kalm   1028,8 90 -
02:54 -1,3 -2,7   Kalm   1028,5 90 -
02:59 -1,4 -2,8   Kalm   1028,5 90 -
03:04 -1,6 -3,0   Kalm   1028,5 90 -
03:09 -1,6 -3,0   Kalm   1028,5 90 -
03:14 -1,7 -3,1   Kalm   1028,5 90 -
03:19 -1,8 -3,1   Kalm   1028,5 91 -
03:24 -1,8 -3,2   Kalm   1028,5 90 -
03:29 -1,9 -3,3   Kalm   1028,5 90 -
03:34 -1,9 -3,3   Kalm   1028,5 90 -
03:39 -2,0 -3,4   Kalm   1028,5 91 -
03:44 -2,1 -3,4   Kalm   1028,1 91 -
03:49 -2,2 -3,5   Kalm   1028,1 91 -
03:54 -2,2 -3,5   Kalm   1028,1 91 -
03:59 -2,2 -3,5   Kalm   1028,1 91 -
04:04 -2,3 -3,6   Kalm   1028,1 91 -
04:09 -2,3 -3,6   Kalm   1027,8 91 -
04:14 -2,3 -3,6   Kalm   1027,8 91 -
04:19 -2,4 -3,7   Kalm   1027,8 91 -
04:24 -2,4 -3,7   Kalm   1027,8 91 -
04:29 -2,5 -3,8   Kalm   1027,8 91 -
04:34 -2,6 -3,9   Kalm   1027,8 91 -
04:39 -2,6 -3,9   Kalm   1027,8 91 -
04:44 -2,7 -4,0   Kalm   1027,8 91 -
04:49 -2,7 -4,0   Kalm   1027,8 91 -
04:54 -2,8 -4,1   Kalm   1027,8 91 -
04:59 -2,8 -4,1   Kalm   1027,8 91 -
05:04 -2,9 -4,2   Kalm   1027,8 91 -
05:09 -2,9 -4,2   Kalm   1027,8 91 -
05:14 -3,0 -4,3   Kalm   1027,4 91 -
05:19 -3,1 -4,4   Kalm   1027,4 91 -
05:24 -3,1 -4,4   Kalm   1027,4 91 -
05:29 -3,1 -4,4   Kalm   1027,4 91 -
05:34 -3,2 -4,5   Kalm   1027,4 91 -
05:39 -3,2 -4,5   Kalm   1027,4 91 -
05:44 -3,2 -4,5   Kalm   1027,4 91 -
05:49 -3,3 -4,6   Kalm   1027,4 91 -
05:54 -3,3 -4,6   Kalm   1027,4 91 -
05:59 -3,3 -4,6   Kalm   1027,4 91 -
06:04 -3,4 -4,7   Kalm   1027,4 91 -
06:09 -3,4 -4,7   Kalm   1027,4 91 -
06:14 -3,4 -4,7   Kalm   1027,4 91 -
06:19 -3,4 -4,7   Kalm   1027,4 91 -
06:24 -3,4 -4,7   Kalm   1027,4 91 -
06:29 -3,5 -4,8   Kalm   1027,4 91 -
06:34 -3,5 -4,8   Kalm   1027,4 91 -
06:39 -3,6 -4,9   Kalm   1027,4 91 -
06:44 -3,6 -4,9   Kalm   1027,4 91 -
06:49 -3,5 -4,8   Kalm   1027,4 91 -
06:54 -3,4 -4,7   Kalm   1027,1 91 -
06:59 -3,4 -4,7   Kalm   1027,4 91 -
07:04 -3,3 -4,6   Kalm   1027,1 91 -
07:09 -3,2 -4,5   Kalm   1027,1 91 -
07:14 -3,1 -4,2   Kalm   1027,1 92 -
07:19 -2,9 -4,0   Kalm   1027,1 92 -
07:24 -2,8 -3,9   Kalm   1027,1 92 -
07:29 -2,7 -3,8   Kalm   1027,1 92 -
07:34 -2,5 -3,6   Kalm   1026,8 92 -
07:39 -2,3 -3,4   Kalm   1026,8 92 -
07:44 -2,1 -3,2   Kalm   1026,8 92 -
07:49 -1,9 -3,0   Kalm   1026,8 92 -
07:54 -1,7 -2,8   Kalm   1026,8 92 -
07:59 -1,5 -2,6   Kalm   1026,8 92 -
08:04 -1,3 -2,4   Kalm   1026,8 92 -
08:09 -1,0 -2,1   Kalm   1026,8 92 -
08:14 -0,8 -1,8   Kalm   1026,8 93 -
08:19 -0,6 -1,7   Kalm   1026,8 93 -
08:24 -0,4 -1,5   Kalm   1026,8 92 -
08:29 -0,3 -1,4   Kalm   1026,8 92 -
08:34 -0,2 -1,3   Kalm   1026,8 92 -
08:39 -0,1 -1,2   Kalm   1026,8 92 -
08:44 0,0 -1,1   Kalm   1026,8 92 -
08:49 0,1 -1,0   Kalm   1026,8 92 -
08:54 0,2 -0,9   Kalm   1026,8 92 -
08:59 0,3 -0,8   Kalm   1026,8 92 -
09:04 0,3 -0,8   Kalm   1026,8 92 -
09:09 0,4 -0,7   Kalm   1026,8 92 -
09:14 0,4 -0,7   Kalm   1026,8 92 -
09:19 0,4 -0,7   Kalm   1026,8 92 -
09:24 0,6 -0,5   Kalm   1026,8 92 -
09:29 0,7 -0,5   Kalm   1026,8 92 -
09:34 0,7 -0,5   Kalm   1026,8 92 -
09:39 0,8 -0,4   Kalm   1026,8 92 -
09:44 0,9 -0,4   Kalm   1026,8 92 -
09:49 1,0 -0,3   Kalm   1026,8 91 -
09:54 1,1 -0,2   Kalm   1026,8 91 -
09:59 1,2 -0,1   Kalm   1026,4 91 -
10:04 1,3 0,0   Kalm   1026,4 91 -
10:09 1,3 0,0   Kalm   1026,4 91 -
10:14 1,4 -0,1   Kalm   1026,4 90 -
10:19 1,4 -0,1   Kalm   1026,4 90 -
10:24 1,6 0,0   Kalm   1026,4 89 -
10:29 1,7 0,1   Kalm   1026,1 89 -
10:34 1,8 0,2   Kalm   1026,1 89 -
10:39 1,9 0,1   Kalm   1026,1 88 -
10:44 2,1 0,2   Kalm   1026,1 87 -
10:49 2,2 0,3   Kalm   1026,1 87 -
10:54 2,3 0,3   Kalm   1026,1 87 -
10:59 2,4 0,3   Kalm   1026,1 86 -
11:04 2,6 0,3   Kalm   1026,1 85 -
11:09 2,7 0,4   Kalm   1026,1 85 -
11:14 2,8 0,4   Kalm   1026,1 85 -
11:19 2,9 0,5   Kalm   1026,1 84 -
11:24 3,0 0,6   Kalm   1026,1 84 -
11:29 3,1 0,6   Kalm   1026,1 84 -
11:34 3,2 0,6   Kalm   1026,1 83 -
11:39 3,3 0,6   Kalm   1026,1 83 -
11:44 3,4 0,6   Kalm   1025,7 82 -
11:49 3,5 0,6   Kalm   1025,7 82 -
11:54 3,6 0,6   Kalm   1025,7 81 -
11:59 3,7 0,5   Kalm   1025,7 80 -
12:04 3,8 0,6   Kalm   1025,7 80 -
12:09 3,8 0,7   Kalm   1025,7 80 -
12:14 3,9 0,6   Kalm   1025,7 79 -
12:19 4,1 0,6   Kalm   1025,7 78 -
12:24 4,1 0,6   Kalm   1025,7 78 -
12:29 4,2 0,5   Kalm   1025,7 77 -
12:34 4,2 0,5   Kalm   1025,7 77 -
12:39 4,3 0,4   Kalm   1025,7 76 -
12:44 4,3 0,4   Kalm   1025,7 76 -
12:49 4,3 0,4   Kalm   1025,7 76 -
12:54 4,3 0,1   Kalm   1025,7 74 -
12:59 4,4 0,2   Kalm   1025,4 74 -
13:04 4,4 0,2   Kalm   1025,4 74 -
13:09 4,4 0,2   Kalm   1025,4 74 -
13:14 4,6 0,1   Kalm   1025,4 73 -
13:19 4,6 0,2   Kalm   1025,4 73 -
13:24 4,8 0,4   Kalm   1025,1 73 -
13:29 4,9 0,4   Kalm   1025,1 73 -
13:34 4,9 0,1   Kalm   1025,1 71 -
13:39 5,0 0,0   Kalm   1025,1 70 -
13:44 4,9 -0,3   Kalm   1025,1 69 -
13:49 4,9 -0,3   Kalm   1025,1 69 -
13:54 4,9 -0,3   Kalm   1024,7 69 -
13:59 4,9 -0,3   Kalm   1024,7 69 -
14:04 5,1 -0,1   Kalm   1024,7 69 -
14:09 5,1 -0,1   Kalm   1024,7 69 -
14:14 5,1 -0,3   Kalm   1024,7 68 -
14:19 5,2 -0,4   Kalm   1024,4 67 -
14:24 5,3 -0,3   Kalm   1024,4 67 -
14:29 5,3 -0,3   Kalm   1024,4 67 -
14:34 5,3 -0,3   Kalm   1024,0 67 -
14:39 5,4 -0,2   Kalm   1024,0 67 -
14:44 5,4 -0,4   Kalm   1024,0 66 -
14:49 5,4 -0,4   Kalm   1024,0 66 -
14:54 5,6 -0,3   Kalm   1024,0 66 -
14:59 5,6 -0,5   Kalm   1024,0 65 -
15:04 5,7 -0,4   Kalm 2,0 1024,0 65 -
15:09 5,8 -0,4   Kalm   1024,0 65 -
15:14 5,8 -0,5 2,0 Westen 2,0 1024,0 64 -
15:19 5,8 -0,6   Kalm   1024,0 64 -
15:24 5,8 -0,5   Kalm   1023,7 64 -
15:29 5,8 -0,5   Kalm 3,0 1023,7 64 -
15:34 5,8 -0,5   Kalm   1023,7 64 -
15:39 5,8 -0,5 1,0 WNW 3,0 1023,7 64 -
15:44 5,8 -0,5   Kalm   1023,7 64 -
15:49 5,8 -0,3   Kalm   1023,7 65 -
15:54 5,8 -0,3 2,0 NW 2,0 1023,7 65 -
15:59 5,8 -0,4   Kalm 2,0 1023,4 65 -
16:04 5,7 -0,4   Kalm 3,0 1023,4 65 -
16:09 5,7 -0,4   Kalm   1023,4 65 -
16:14 5,7 -0,4   Kalm   1023,4 65 -
16:19 5,6 -0,5 2,0 NW 5,0 1023,4 65 -
16:24 5,5 -0,3   Kalm 5,0 1023,4 66 -
16:29 5,4 -0,4   Kalm   1023,4 66 -
16:34 5,4 -0,4   Kalm   1023,4 66 -
16:39 5,3 -0,3   Kalm   1023,4 67 -
16:44 5,3 -0,3 3,0 Westen 3,0 1023,4 67 -
16:49 5,3 -0,4   Kalm 3,0 1023,4 67 -
16:54 5,2 -0,4 5,0 WNW 5,0 1023,0 67 -
16:59 5,2 -0,2   Kalm   1023,0 68 -
17:04 5,2 -0,2   Kalm   1023,0 68 -
17:09 5,2 -0,2   Kalm   1023,0 68 -
17:14 5,1 -0,3   Kalm 2,0 1023,0 68 -
17:19 5,1 -0,3   Kalm 2,0 1023,0 68 -
17:24 5,1 -0,1   Kalm   1023,0 69 -
17:29 5,1 -0,1   Kalm   1023,0 69 -
17:34 5,0 -0,2   Kalm   1023,0 69 -
17:39 4,9 -0,1   Kalm   1023,0 70 -
17:44 4,9 -0,1   Kalm   1023,0 70 -
17:49 4,9 -0,1   Kalm 2,0 1023,0 70 -
17:54 4,8 -0,2   Kalm   1023,0 70 -
17:59 4,8 0,0   Kalm   1023,0 71 -
18:04 4,8 0,0 3,0 NW 3,0 1023,0 71 -
18:09 4,7 -0,1   Kalm 3,0 1022,7 71 -

Download your copy of this data-set  here

Our weather-data as stored at Weather Underground. Script ontwikkeld door Jim McMurry. Aangepast voor de template door Leuven-Template.eu

U vindt ons ook hier:

Het Weer Aktueel

European Weather Network

Weather Underground

Benelux Weer Netwerk

Apparatuur in gebruik:

Weerstation
Davis VP2

Weerprogramma
Meteobridge

Weercomputer
Meteobridge Pro+

Webleverancier
vip.nl

Davis VP2

Meteobridge

Meteobridge Pro+

vip.nl